Home   Weather   Kaliningrad   Past weeks

Flag for Russia Past Weather in Kaliningrad, Russia — Yesterday and Last 2 Weeks

Now
36 °F

Overcast.


Feels Like: 33 °F
Forecast: 31 / 37 °F
Wind: 3 mph from Southeast

Location: Kaliningrad/Khrabrovo Airport

Current Time: Feb 23, 2017 at 10:55:47 pm

Latest Report: Feb 23, 2017 at 10:00 pm


Visibility: 4 mi

Pressure: 29.18 "Hg

Humidity: 100%

Dew Point: 36 °F

Location of KaliningradLocation

Past Weather in Kaliningrad — Graph

°F

Kaliningrad Temperature Yesterday

Maximum temperature yesterday: 43 °F (at 3:30 pm)
Minimum temperature yesterday: 30 °F (at 5:00 am)
Average temperature yesterday: 37 °F

High & Low Weather Summary for the Past Weeks

 TemperatureHumidityPressure
High45 °F (Feb 21, 1:00 am)100% (Feb 11, 5:30 am)30.77 "Hg (Feb 11, 5:30 am)
Low10 °F (Feb 13, 12:00 am)34% (Feb 10, 3:30 pm)29.09 "Hg (Feb 23, 4:30 am)
Average32 °F88%30.18 "Hg
* Reported Feb 8 9:00 pm — Feb 23 9:30 pm, Kaliningrad, Weather by CustomWeather, © 2017

Note: Actual official high and low records may vary slightly from our data, if they occured in-between our weather recording intervals... More about our weather records

Advertising

Kaliningrad Weather History for the Previous 24 Hours

Scroll right to see more
 ConditionsComfort  
Time TempWeatherWind HumidityBarometerVisibility
9:30 pm
Thu, Feb 23
36 °FOvercast.3 mph100%29.18 "Hg4 mi
9:00 pm36 °FOvercast.3 mph100%29.21 "Hg5 mi
8:30 pm37 °FPassing clouds.3 mph100%29.24 "HgN/A
8:00 pm37 °FOvercast.3 mph100%29.24 "HgN/A
7:30 pm37 °FSprinkles. Passing clouds.6 mph100%29.27 "Hg6 mi
7:00 pm39 °FPartly sunny.8 mph93%29.27 "HgN/A
6:30 pm39 °FPartly sunny.8 mph93%29.27 "HgN/A
6:00 pm39 °FPartly sunny.8 mph87%29.27 "HgN/A
5:30 pm39 °FPartly sunny.6 mph87%29.27 "HgN/A
5:00 pm39 °FPartly sunny.8 mph87%29.30 "HgN/A
4:30 pm41 °FSprinkles. Partly sunny.10 mph81%29.30 "Hg6 mi
4:00 pm41 °FSprinkles. Partly sunny.10 mph81%29.30 "Hg6 mi
3:30 pm41 °FPartly sunny.13 mph81%29.30 "HgN/A
3:00 pm41 °FPartly sunny.15 mph93%29.27 "HgN/A
2:30 pm41 °FPartly sunny.13 mph93%29.27 "HgN/A
2:00 pm41 °FSprinkles. Partly sunny.13 mph93%29.27 "HgN/A
1:30 pm41 °FSprinkles. Partly sunny.17 mph93%29.27 "Hg6 mi
1:00 pm41 °FSprinkles. Partly sunny.17 mph93%29.24 "Hg6 mi
12:30 pm41 °FSprinkles. Partly sunny.15 mph93%29.24 "Hg6 mi
12:00 pm41 °FSprinkles. Partly sunny.17 mph93%29.21 "Hg6 mi
11:30 am41 °FSprinkles. Partly sunny.20 mph93%29.21 "Hg6 mi
11:00 am41 °FSprinkles. Partly sunny.20 mph93%29.18 "Hg5 mi
10:30 am41 °FPartly sunny.20 mph93%29.18 "HgN/A
10:00 am41 °FSprinkles. Partly sunny.22 mph93%29.15 "Hg4 mi
9:30 am39 °FSprinkles. Partly sunny.20 mph100%29.15 "Hg4 mi
9:00 am39 °FSprinkles. Partly sunny.22 mph100%29.12 "Hg3 mi
8:30 am39 °FSprinkles. Passing clouds.24 mph93%29.12 "Hg2 mi
8:00 am39 °FSprinkles. Passing clouds.24 mph93%29.09 "Hg6 mi
7:30 am39 °FSprinkles. Passing clouds.24 mph93%29.09 "Hg3 mi
6:30 am37 °FSprinkles. Passing clouds.22 mph100%29.09 "Hg4 mi
6:00 am37 °FSprinkles. Passing clouds.22 mph100%29.09 "Hg5 mi
5:30 am37 °FSprinkles. Passing clouds.22 mph100%29.09 "Hg3 mi
5:00 am36 °FSprinkles. Passing clouds.20 mph100%29.09 "Hg1 mi
4:30 am37 °FSprinkles. Passing clouds.22 mph87%29.09 "Hg2 mi
3:00 am41 °FPassing clouds.24 mph70%29.12 "HgN/A
2:00 am39 °FPassing clouds.20 mph75%29.15 "HgN/A
1:00 am39 °FPassing clouds.22 mph75%29.15 "HgN/A
12:00 am39 °FPassing clouds.20 mph81%29.15 "HgN/A
11:00 pm
Wed, Feb 22
39 °FPassing clouds.17 mph81%29.15 "HgN/A
10:30 pm39 °FPassing clouds.17 mph81%29.18 "HgN/A
10:00 pm37 °FPassing clouds.15 mph87%29.18 "HgN/A
Weather by CustomWeather, © 2017

See weather overviewHow to use our weather pages